Weather History for KGYH - December, 2012

Change the Weather History Date:

Monday, December 10, 2012

  Actual Average (KGSP) Record (KGSP)
Temperature  
Mean Temperature 60 °F 45 °F  
Max Temperature 66 °F 55 °F 79 °F (2007)
Min Temperature 55 °F 35 °F 13 °F (1917)
Degree Days  
Heating Degree Days 4 20  
Month to date heating degree days 190  
Since 1 July heating degree days 743  
Cooling Degree Days 0 0  
Month to date cooling degree days 0  
Year to date cooling degree days 1715  
Growing Degree Days 10 (Base 50)    
Moisture  
Dew Point 58 °F    
Average Humidity 97    
Maximum Humidity 100    
Minimum Humidity 78    
Precipitation  
Precipitation 0.00 in 0.14 in 1.71 in (1961)
Month to date precipitation 1.41  
Year to date precipitation 44.49  
Snow  
Snow 0.00 in 0.00 in 1.00 in (1903)
Month to date snowfall 0.0  
Since 1 July snowfall 0.1  
Snow Depth -    
Sea Level Pressure  
Sea Level Pressure 29.83 in    
Wind  
Wind Speed 7 mph (SW)    
Max Wind Speed 16 mph    
Max Gust Speed 28 mph    
Visibility 6 miles    
Events Fog , Rain    
T = Trace of Precipitation, MM = Missing Value Source: NWS Daily Summary

Daily Weather History Graph

Daily Weather History Graph

Search for Another Location

Airport or City:

Trip Planner

Search our weather history database for the weather conditions in past years. The results will help you decide how hot, cold, wet, or windy it might be!

Date:

Astronomy

Dec. 10, 2012 Rise Set
Actual Time 7:26 AM EST 5:18 PM EST
Civil Twilight 6:58 AM EST 5:46 PM EST
Nautical Twilight 6:26 AM EST 6:18 PM EST
Astronomical Twilight 5:56 AM EST 6:48 PM EST
Moon 4:12 AM EST (12/10) 3:03 PM EST (12/10)
Length of Visible Light 10h 48m
Length of Day
9h 52m
Waning Crescent, 10% of the Moon is Illuminated
Dec 10
Waning Crescent
Dec 13
New
Dec 20
First Quarter
Dec 28
Full
Jan 4
Last Quarter

Hourly Weather History & Observations

Time (EST) Temp. Dew Point Humidity Pressure Visibility Wind Dir Wind Speed Gust Speed Precip Events Conditions
12:15 AM 57.2 °F 57.2 °F 100% 29.99 in 0.8 mi West 3.5 mph - N/A   Overcast
1:15 AM 57.2 °F 57.2 °F 100% 29.96 in 0.2 mi Calm Calm - N/A Fog Fog
1:35 AM 55.4 °F 55.4 °F 100% 29.95 in 0.5 mi West 3.5 mph - N/A Fog Fog
1:55 AM 55.4 °F 55.4 °F 100% 29.95 in 0.8 mi West 3.5 mph - N/A   Overcast
2:15 AM 55.4 °F 55.4 °F 100% 29.95 in 0.2 mi West 3.5 mph - N/A Fog Fog
2:35 AM 57.2 °F 55.4 °F 94% 29.94 in 0.2 mi WSW 4.6 mph - N/A Fog Fog
2:55 AM 57.2 °F 57.2 °F 100% 29.94 in 1.0 mi WSW 5.8 mph - N/A   Overcast
3:15 AM 57.2 °F 57.2 °F 100% 29.95 in 1.2 mi WSW 5.8 mph - N/A   Overcast
3:35 AM 57.2 °F 57.2 °F 100% 29.93 in 1.2 mi WSW 4.6 mph - N/A   Overcast
3:55 AM 57.2 °F 57.2 °F 100% 29.92 in 2.5 mi WSW 5.8 mph - N/A   Overcast
4:15 AM 57.2 °F 57.2 °F 100% 29.91 in 3.0 mi WSW 4.6 mph - N/A   Overcast
4:35 AM 57.2 °F 57.2 °F 100% 29.90 in 3.0 mi WSW 3.5 mph - N/A   Overcast
4:55 AM 57.2 °F 57.2 °F 100% 29.90 in 2.5 mi WSW 3.5 mph - N/A   Overcast
5:15 AM 57.2 °F 57.2 °F 100% 29.89 in 3.0 mi SW 9.2 mph - N/A   Overcast
5:35 AM 57.2 °F 57.2 °F 100% 29.88 in 2.5 mi SW 5.8 mph - N/A   Overcast
6:47 AM 57.2 °F 57.2 °F 100% 29.87 in 3.0 mi SW 6.9 mph - N/A   Overcast
7:47 AM 57.2 °F 57.2 °F 100% 29.86 in 4.0 mi SSW 9.2 mph - N/A   Overcast
8:47 AM 59.0 °F 59.0 °F 100% 29.84 in 7.0 mi SW 10.4 mph 16.1 mph N/A   Overcast
9:47 AM 60.8 °F 59.0 °F 94% 29.85 in 7.0 mi WSW 13.8 mph 19.6 mph N/A   Overcast
10:47 AM 60.8 °F 59.0 °F 94% 29.84 in 10.0 mi SW 16.1 mph 27.6 mph N/A   Overcast
11:20 AM 62.6 °F 59.0 °F 88% 29.83 in 10.0 mi WSW 9.2 mph - N/A   Overcast
11:47 AM 62.6 °F 59.0 °F 88% 29.82 in 10.0 mi SW 13.8 mph - N/A   Overcast
12:47 PM 64.4 °F 59.0 °F 83% 29.79 in 10.0 mi SW 11.5 mph 18.4 mph N/A   Overcast
1:47 PM 66.2 °F 59.0 °F 78% 29.75 in 10.0 mi SW 11.5 mph 18.4 mph N/A   Mostly Cloudy
2:47 PM 64.4 °F 60.8 °F 88% 29.73 in 10.0 mi SW 10.4 mph 18.4 mph N/A   Overcast
3:16 PM 62.6 °F 60.8 °F 94% 29.75 in 2.0 mi West 9.2 mph - N/A Rain Rain
3:47 PM 62.6 °F 60.8 °F 94% 29.76 in 10.0 mi WSW 5.8 mph - N/A Rain Light Rain
4:47 PM 62.6 °F 60.8 °F 94% 29.76 in 5.0 mi SW 8.1 mph - N/A Rain Light Rain
5:47 PM 60.8 °F 60.8 °F 100% 29.75 in 10.0 mi SSW 10.4 mph - N/A Rain Light Rain
6:47 PM 60.8 °F 60.8 °F 100% 29.74 in 10.0 mi SSW 10.4 mph - N/A Rain Light Rain
7:47 PM 60.8 °F 60.8 °F 100% 29.75 in 10.0 mi SW 10.4 mph - N/A   Overcast
8:15 PM 59.0 °F 59.0 °F 100% 29.74 in 10.0 mi SSW 10.4 mph - N/A   Mostly Cloudy
8:35 PM 59.0 °F 59.0 °F 100% 29.75 in 10.0 mi SSW 11.5 mph 16.1 mph N/A   Overcast
8:47 PM 60.8 °F 60.8 °F 100% 29.74 in 10.0 mi SW 10.4 mph 16.1 mph N/A   Mostly Cloudy
8:55 PM 59.0 °F 59.0 °F 100% 29.75 in 10.0 mi SSW 11.5 mph 16.1 mph N/A   Overcast
9:15 PM 59.0 °F 59.0 °F 100% 29.74 in 10.0 mi SSW 10.4 mph 16.1 mph N/A   Overcast
9:35 PM 60.8 °F 59.0 °F 94% 29.75 in 10.0 mi SW 10.4 mph 16.1 mph N/A   Overcast
9:55 PM 60.8 °F 59.0 °F 94% 29.75 in 10.0 mi SSW 11.5 mph 16.1 mph N/A   Overcast
10:15 PM 59.0 °F 59.0 °F 100% 29.75 in 10.0 mi SW 11.5 mph 17.3 mph N/A   Overcast
10:55 PM 60.8 °F 59.0 °F 94% 29.75 in 10.0 mi SW 11.5 mph 19.6 mph N/A   Overcast
11:15 PM 60.8 °F 59.0 °F 94% 29.76 in 10.0 mi SW 10.4 mph - N/A   Overcast
11:35 PM 60.8 °F 59.0 °F 94% 29.76 in 10.0 mi WSW 11.5 mph - N/A   Overcast
11:55 PM 60.8 °F 59.0 °F 94% 29.76 in 10.0 mi SW 12.7 mph 17.3 mph N/A   Overcast